This is the latest recevied weather packets stored in our database for station/object KV4OP. If no packets are shown the sender has not sent any weather packets the latest 10 day(s).
| Time | Temp. | Humidity | Pressure | Rain* | Wind** | Luminosity | Snow |
|---|---|---|---|---|---|---|---|
| 1788300626 | 31.11° C | 75% | 1015.9 hPa | 0 mm | - | - | - |
| 1788300325 | 31.11° C | 75% | 1015.8 hPa | 0 mm | - | - | - |
| 1788300035 | 31.11° C | 75% | 1015.7 hPa | 0 mm | - | - | - |
| 1788299726 | 31.11° C | 74% | 1015.7 hPa | 0 mm | - | - | - |
| 1788299426 | 31.11° C | 75% | 1015.7 hPa | 0 mm | - | - | - |
| 1788299126 | 31.11° C | 75% | 1015.7 hPa | 0 mm | - | - | - |
| 1788298835 | 31.11° C | 75% | 1015.7 hPa | 0 mm | - | - | - |
| 1788298526 | 30.56° C | 75% | 1015.8 hPa | 0 mm | - | - | - |
| 1788298227 | 31.11° C | 74% | 1015.6 hPa | 0 mm | - | - | - |
| 1788297926 | 31.67° C | 75% | 1015.7 hPa | 0 mm | - | - | - |
| 1788297635 | 31.11° C | 76% | 1015.7 hPa | 0 mm | - | - | - |
| 1788297326 | 31.11° C | 75% | 1015.7 hPa | 0 mm | - | - | - |
| 1788297026 | 31.11° C | 76% | 1015.8 hPa | 0 mm | - | - | - |
| 1788296726 | 31.67° C | 75% | 1015.8 hPa | 0 mm | - | - | - |
| 1788296435 | 31.11° C | 75% | 1015.7 hPa | 0 mm | - | - | - |
| 1788296126 | 31.11° C | 75% | 1015.9 hPa | 0 mm | - | - | - |
| 1788295826 | 31.67° C | 75% | 1015.8 hPa | 0 mm | - | - | - |
| 1788295526 | 31.67° C | 77% | 1015.7 hPa | 0 mm | - | - | - |
| 1788295235 | 31.67° C | 75% | 1015.8 hPa | 0 mm | - | - | - |
| 1788294926 | 31.67° C | 75% | 1015.8 hPa | 0 mm | - | - | - |
| 1788294631 | 31.11° C | 75% | 1015.9 hPa | 0 mm | - | - | - |
| 1788294326 | 30.56° C | 78% | 1015.9 hPa | 0 mm | - | - | - |
| 1788294035 | 30.56° C | 79% | 1016 hPa | 0 mm | - | - | - |
| 1788293727 | 30° C | 78% | 1016.1 hPa | 0 mm | - | - | - |
| 1788293427 | 30° C | 79% | 1016.1 hPa | 0 mm | - | - | - |
* Rain latest hour (hover to see other rain measurements)
** Current wind speed in m/s (hover to see current wind gust speed)